Meteo Giornale » Osservazioni meteo Svezia » Stockholm-Arlanda

ore: 02:50 - Osservazioni Meteo Stockholm-Arlanda
Lat. 59° 39' N Lon. 17° 57' E Alt. 38 metri s.l.m.

coperto_pioggia Europe/Stockholm

7 °C

Pioggia Debole

Temp. 24 Ore

5 °C

11 °C

Est/Nord-Est

11.1 Km/h

Dew point 6 °C

Umidità 93 %

Visibilità  10 Km

Il sole sorge alle ore 07:22

Il sole tramonta alle ore 17:45

Data e Ora Cielo e Fenomeni T °C DP °C Um. % Pres. hPa Vis. km Vento km/h
Oggi h: 02:50 coperto_pioggia Pioggia Debole 7 6 93 1006 10 E/NE 11.1
Oggi h: 02:20 molto_nuvoloso Molto Nuvoloso 7 6 93 1006 10 E/SE 7.4
Oggi h: 01:50 sereno Sereno 7 6 93 1007 10 E 7.4
Oggi h: 01:20 sereno Sereno 6 5 93 1007 10 E/NE 9.3
Oggi h: 00:50 sereno Sereno 6 5 93 1008 10 E/NE 9.3
Oggi h: 00:20 sereno Sereno 6 5 93 1008 10 E/NE 9.3
Ieri h: 23:50 sereno Sereno 6 5 93 1009 10 N 5.5
Ieri h: 23:20 sereno Sereno 7 5 87 1009 10 SE 9.3
Ieri h: 22:50 sereno Sereno 7 5 87 1010 10 SE 9.3
Ieri h: 22:20 sereno Sereno 8 5 81 1010 10 SE 7.4
Ieri h: 21:50 molto_nuvoloso Molto Nuvoloso 8 5 81 1010 10 SE 7.4
Ieri h: 21:20 molto_nuvoloso Molto Nuvoloso 7 5 87 1010 10 SE 7.4
Ieri h: 20:50 nuvoloso Nuvoloso 5 4 93 1010 10 N 5.5
Ieri h: 20:20 sereno Sereno 6 4 86 1010 10 N 3.7
Ieri h: 19:50 sereno Sereno 6 4 86 1010 10 S/SE 7.4
Ieri h: 19:20 sereno Sereno 6 4 86 1010 10 N 3.7
Ieri h: 18:50 sereno Sereno 6 4 86 1010 10 N 5.5
Ieri h: 18:20 sereno Sereno 6 4 86 1010 10 N 5.5
Ieri h: 17:50 sereno Sereno 8 4 75 1009 10 O/SO 7.4
Ieri h: 17:20 sereno Sereno 10 4 66 1010 10 O/SO 7.4
Ieri h: 16:50 sereno Sereno 11 4 61 1009 10 O 9.3
Ieri h: 16:20 sereno Sereno 11 4 61 1009 10 O/SO 16.7
Ieri h: 15:50 nuvoloso Nuvoloso 11 4 61 1009 10 SO 16.7
Ieri h: 15:20 nuvoloso Nuvoloso 11 6 71 1009 10 SO 16.7
Ieri h: 14:50 nuvoloso Nuvoloso 10 5 71 1008 10 O 13
Ieri h: 14:20 nuvoloso Nuvoloso 9 5 75 1008 10 O/SO 13
Ieri h: 13:50 molto_nuvoloso Molto Nuvoloso 10 4 66 1008 10 O 14.8
Ieri h: 13:20 nuvoloso Nuvoloso 10 4 66 1008 10 SO 18.5
Ieri h: 12:50 nuvoloso Nuvoloso 10 5 71 1007 10 O/SO 18.5
Ieri h: 12:20 nuvoloso Nuvoloso 10 5 71 1007 10 O/SO 16.7
Ieri h: 11:50 nuvoloso Nuvoloso 9 6 81 1007 10 O/SO 16.7
Ieri h: 11:20 nuvoloso Nuvoloso 9 6 81 1006 10 O/SO 14.8
Ieri h: 10:50 nuvoloso Nuvoloso 8 6 87 1006 10 O 11.1
Ieri h: 10:20 molto_nuvoloso Molto Nuvoloso 8 6 87 1005 10 O 13
Ieri h: 09:50 molto_nuvoloso Molto Nuvoloso 8 7 93 1005 10 O/NO 9.3
Ieri h: 09:20 molto_nuvoloso Molto Nuvoloso 8 7 93 1004 10 O 13
Ieri h: 08:50 molto_nuvoloso Molto Nuvoloso 8 7 93 1004 10 O 14.8
Ieri h: 08:20 molto_nuvoloso Molto Nuvoloso 8 8 100 1003 10 O 11.1
Ieri h: 07:50 molto_nuvoloso Molto Nuvoloso 8 8 100 1002 10 O 13
Ieri h: 07:20 molto_nuvoloso Molto Nuvoloso 8 8 100 1002 10 O/SO 11.1
Ieri h: 06:50 coperto Coperto 8 8 100 1001 10 O 11.1
Ieri h: 06:20 coperto_pioggia Pioviggine Leggera 8 7 93 1001 10 O/SO 13
Ieri h: 05:50 poco_nuvoloso Poco Nuvoloso 8 7 93 1001 10 O 13
Ieri h: 05:20 sereno Sereno 8 7 93 1000 10 O 14.8
Ieri h: 04:50 sereno Sereno 8 7 93 1000 10 O/SO 14.8
Ieri h: 04:20 molto_nuvoloso Molto Nuvoloso 9 8 93 999 10 O/SO 18.5
Ieri h: 03:50 coperto_pioggia Pioviggine 9 8 93 999 10 O/SO 20.3